Location: Brestik
(45.2256°N, 16.1919°E)
Time: 01:53:26
(UTC+00:00)

Daily predictions for brighter satellites

Satellite Brightness Start Highest point End
(mag) Time Altitude Azimuth Time Altitude Azimuth Time Altitude Azimuth
CENTAUR R/B 3.6 02:14:21 57° E 02:14:21 57° E 02:21:45 10° SE
ATLAS 2AS CENTAUR R/B 4.1 02:27:56 27° SSE 02:31:16 38° ESE 02:38:23 10° NE
BREEZE-M DEB (TANK) 4.3 02:45:10 79° S 02:45:31 81° SSE 03:10:16 10° ENE
Lacrosse 5 3.5 02:52:48 31° E 02:52:48 31° E 02:56:06 10° ENE
ATLAS CENTAUR R/B 4.3 02:55:55 12° ENE 02:55:55 12° ENE 02:56:28 10° ENE
USA 238 DEB 4.5 02:58:22 44° S 02:58:22 44° S 03:03:23 10° SSE
USA 238 4.5 02:58:25 45° S 02:58:25 45° S 03:03:29 10° SSE
Cosmos 2263 Rocket 3.2 03:01:26 40° NE 03:01:26 40° NE 03:05:02 10° NNE
SJ 16-02 3.2 03:08:47 27° NE 03:08:47 27° NE 03:11:08 10° NE
FENGYUN 3A 4.1 03:13:23 10° NNE 03:18:45 59° E 03:24:03 10° S
Cosmos 1709 Rocket 4.1 03:15:01 10° S 03:21:21 77° E 03:27:45 10° N
CZ-4C R/B 3.1 03:25:49 24° S 03:28:19 41° ESE 03:33:37 10° NE
Cosmos 1603 4.4 03:30:28 40° S 03:30:28 40° S 03:34:08 10° S
COSMO-SKYMED 1 4.1 03:24:47 10° SE 03:28:43 35° ENE 03:30:47 22° NNE
Meteor 2-3 Rocket 4.1 03:25:22 10° S 03:31:00 64° E 03:36:44 10° NNE
BREEZE-M DEB (TANK) 4.1 03:30:34 54° NW 03:32:18 77° NNE 03:36:07 10° ESE
ATLAS 3B R/B 3.2 03:30:35 32° NNW 03:33:46 56° NE 03:40:48 10° SE
Cosmos 1943 3.5 03:36:00 54° SSW 03:36:00 54° SSW 03:40:33 10° SSE
Lacrosse 4 Rocket 2.3 03:38:11 44° SSE 03:38:11 44° SSE 03:41:15 10° SSE
Cosmos 1689 Rocket 4.4 03:44:24 10° SE 03:46:15 24° E 03:46:15 24° E
SAR-Lupe-4 4.4 03:44:51 10° SSE 03:48:19 49° ENE 03:48:19 49° ENE
Genesis I 4.5 03:49:53 23° S 03:51:40 38° ESE 03:55:16 10° NE
EXPRESS MD2 4.1 03:53:25 43° NNE 03:53:25 43° NNE 03:58:37 10° E
Cosmos 990 Rocket 4.4 03:48:48 10° S 03:53:57 62° ESE 03:59:09 10° NNE
ALOS 2.6 03:49:43 10° N 03:53:16 49° NNW 03:53:16 49° NNW
Cosmos 923 Rocket 3.9 03:53:37 48° NNW 03:55:09 82° WSW 04:00:28 10° SSE
deb Chang Zheng 4 3.6 03:51:17 10° NNE 03:55:39 77° ESE 03:59:58 10° S
METEOR-M 4.0 03:53:45 10° NNE 03:59:07 81° WNW 04:04:27 10° SSW
Cosmos 2344 4.5 03:53:01 20° NW 04:00:23 77° NE 04:13:35 10° SE
NOSS 3-2 (C) 4.5 04:00:07 37° W 04:01:41 41° WSW 04:09:31 10° S
NOSS 3-4 (A) 3.4 04:00:50 46° W 04:02:19 58° NW 04:08:36 10° NNE
NOSS 3-4 (C) 3.4 04:00:54 45° W 04:02:27 59° NW 04:08:44 10° NNE
USA 305 4.4 04:02:46 25° N 04:02:54 25° N 04:06:29 10° ENE
CENTAUR R/B 3.6 04:01:35 36° W 04:03:40 41° WSW 04:11:45 10° S
SAR-Lupe-1 4.1 04:01:44 10° SSE 04:05:18 77° ENE 04:05:49 61° N
ARGOS Delta rocket 4.2 04:00:29 10° N 04:04:43 45° NW 04:04:43 45° NW
Meteor 1-31 Rocket 4.1 04:03:12 10° N 04:12:43 - SSW 04:05:08 28° N
Cosmos 2184 Rocket 4.4 04:02:31 10° S 04:08:45 68° E 04:15:06 10° NNE
USA 306 4.3 04:10:52 25° N 04:11:24 25° N 04:15:00 10° ENE
Cosmos 158 Rocket 3.8 04:10:38 45° NW 04:11:50 58° WSW 04:16:43 10° S
Cosmos 1812 4.2 04:08:32 10° N 04:12:08 37° ENE 04:15:43 10° SE
Cosmos 2228 Rocket 4.3 04:08:02 10° N 04:12:14 41° ENE 04:16:23 10° SSE
Meteor 2-17 Rocket 4.3 04:07:02 10° SSW 04:13:04 79° W 04:19:10 10° N
Cosmos 1515 Rocket 3.5 04:09:36 16° N 04:13:13 87° E 04:17:41 10° S
SL-4 R/B 2.9 04:15:03 31° N 04:15:08 31° N 04:18:31 10° ENE
PSLV R/B 4.0 04:11:58 10° SSE 04:16:06 79° ENE 04:19:24 16° N
Cosmos 1151 Rocket 3.6 04:17:01 38° WSW 04:17:01 38° WSW 04:20:14 10° SSW
SKYMED 2 3.4 04:12:21 10° S 04:16:41 76° WSW 04:19:24 23° NNW
Cosmos 1782 2.7 04:16:34 43° NNW 04:17:41 65° W 04:21:41 10° S
Cosmos 1844 Rocket 3.0 04:12:10 10° SSW 04:17:45 69° ESE 04:23:24 10° NNE
ERS-2 3.8 04:17:48 10° SSW 04:19:17 21° SSW 04:19:17 21° SSW
ATLAS 2AS CENTAUR R/B 3.0 04:15:31 16° SW 04:22:01 62° NW 04:29:48 10° NE
Cosmos 1680 Rocket 3.5 04:20:02 25° NW 04:23:06 62° WSW 04:28:19 10° S
SJ-12 3.8 04:19:22 10° N 04:23:24 66° WNW 04:27:25 10° SSW
COSMOS 2455 4.3 04:18:48 10° S 04:24:20 40° ESE 04:29:55 10° NE
FALCON 9 DEB 3.0 04:24:40 59° NNW 04:24:40 59° NNW 04:27:47 10° NE
ATLAS 5 CENTAUR R/B 3.7 04:31:19 15° NNW 04:31:19 15° NNW 04:32:13 10° N
Atlas Centaur 2 4.2 04:27:06 10° SW 04:31:21 18° S 04:35:02 10° SE
Cosmos 1844 3.9 04:25:55 10° SSW 04:31:25 71° ESE 04:36:59 10° NNE
RESURS DK-1 2.2 04:27:53 10° SW 04:32:01 71° WNW 04:36:12 10° NNE
ATLAS CENTAUR R/B 1.1 04:32:06 31° NW 04:33:51 90° NE 04:37:49 10° SE
ADEOS 4.0 04:29:13 10° N 04:33:59 37° WNW 04:38:45 10° SW
Lacrosse 5 2.1 04:32:03 29° W 04:34:20 50° NNW 04:39:17 10° NE
Cosmos 1500 Rocket 3.4 04:31:48 10° S 04:36:07 88° WNW 04:40:28 10° N
Cosmos 1328 Rocket 4.3 04:35:39 31° WNW 04:36:07 31° W 04:40:02 10° SSW
Meteor PRIRODA 3.5 04:32:38 10° N 04:36:22 66° WNW 04:40:03 10° SSW
Meteor 2-6 Rocket 4.0 04:32:35 10° NNW 04:38:00 84° W 04:43:27 10° S
H-2A R/B 2.8 04:36:22 10° NNE 04:40:18 82° E 04:44:11 10° S
Cosmos 1437 Rocket 3.6 04:38:15 10° N 04:41:57 49° ENE 04:45:37 10° SSE
Cosmos 2112 Rocket 4.3 04:38:54 17° NW 04:42:49 49° WSW 04:47:56 10° S
Cosmos 2263 Rocket 3.3 04:43:11 21° WNW 04:43:53 22° NW 04:48:14 10° N
Okean O Rocket 3.8 04:40:05 10° NE 04:43:58 29° E 04:47:50 10° SSE
Gbstr 26 Del rocket 2.9 04:43:33 29° W 04:45:11 54° SW 04:49:04 10° SE
SJ 16-02 2.5 04:45:52 23° NW 04:45:52 23° NW 04:49:18 10° N
ATLAS 5 CENTAUR R/B 4.2 04:45:20 10° SSE 04:48:27 22° ESE 04:51:48 10° ENE
Nadezhda 3 Rocket 4.0 04:44:06 10° N 04:50:26 90° WSW 04:56:40 10° S
Cosmos 1898 Rocket 3.7 04:47:56 10° SW 04:53:05 49° WNW 04:58:17 10° NNE
CZ-2C R/B 3.7 04:49:18 10° SE 04:54:31 45° ENE 04:59:37 10° N
Sich 1 3.7 04:52:39 10° S 04:57:01 59° E 05:01:23 10° NNE
FALCON 9 DEB 3.6 04:56:35 24° WNW 04:57:57 38° NNW 05:01:00 10° NE
FALCON 9 DEB 3.6 04:56:45 24° WNW 04:58:05 36° NNW 05:01:07 10° NE
Envisat 3.1 04:54:24 10° NNE 04:59:31 82° ESE 05:04:35 10° SSW
Cosmos 1743 Rocket 3.8 04:55:49 10° SSW 05:00:07 48° WNW 05:04:28 10° N
SJ-7 4.3 04:56:53 10° N 05:00:56 73° WNW 05:05:01 10° SSW
H-2A R/B 2.4 04:59:04 10° NNE 05:02:55 76° ESE 05:06:44 10° S
COSMO-SKYMED 1 3.7 05:01:26 10° SSW 05:04:56 24° W 05:07:59 12° NW
Cosmos 2082 Rocket 4.1 05:00:43 10° N 05:05:21 25° NE 05:09:58 10° ESE
NOSS 7 (E) 4.3 05:02:22 10° SW 05:06:08 65° NW 05:09:15 10° NNE
CZ-4B R/B 4.1 05:02:16 10° NNE 05:07:31 54° E 05:12:50 10° S
USA 307 4.2 05:05:08 13° NW 05:08:22 31° NNE 05:12:13 10° E
Cosmos 1937 Rocket 3.7 05:05:13 10° SW 05:10:10 47° WNW 05:15:12 10° N
USA 308 4.1 05:11:14 12° NW 05:14:45 32° NNE 05:18:39 10° E
MOS 1 Rocket 3.6 05:10:33 10° S 05:15:11 50° W 05:20:09 10° NNW
Cosmos 2154 Rocket 4.0 05:09:47 10° SSW 05:15:54 59° WNW 05:22:07 10° N
Cosmos 1833 Rocket 3.7 05:10:31 10° NNW 05:15:55 45° ENE 05:21:17 10° SE
CZ-4C R/B 2.7 05:12:03 10° WSW 05:16:50 38° NW 05:22:32 10° NNE
CZ-4B R/B 4.1 05:13:48 10° N 05:17:29 26° WNW 05:21:07 10° WSW
Cosmos 1689 Rocket 4.0 05:16:42 10° WSW 05:18:02 13° W 05:18:12 13° W
Cosmos 1805 Rocket 3.6 05:14:53 10° SSW 05:19:15 61° W 05:23:42 10° N
Meteor 1-27 Rocket 3.8 05:13:46 10° NNW 05:19:33 78° W 05:25:25 10° S
FALCON 9 DEB 4.0 05:18:32 13° WNW 05:20:55 30° NNW 05:23:49 10° NE
Aureole 2 Rocket 2.5 05:21:49 10° SW 05:24:03 27° WNW 05:26:19 10° N
ATLAS 3B R/B 3.4 05:17:59 10° NW 05:24:16 37° WSW 05:30:46 10° S
Cosmos 2150 Rocket 4.4 05:19:58 10° S 05:25:16 70° ESE 05:30:30 10° NNE
Cosmos 2298 Rocket 4.3 05:20:27 10° SSW 05:25:43 76° ESE 05:31:02 10° NNE
COSMOS 2406 3.7 05:20:19 10° NNW 05:26:04 66° ENE 05:31:47 10° SE
Cosmos 1666 Rocket 3.7 05:22:03 10° S 05:26:20 77° E 05:30:41 10° NNE
Cosmos 1862 4.2 05:23:30 10° SW 05:26:59 27° WNW 05:30:30 10° NNW
Cosmos 1048 Rocket 4.2 05:23:01 10° NNW 05:28:20 75° ENE 05:33:31 10° SSE
YAOGAN 6 2.9 05:25:09 10° N 05:28:28 40° WNW 05:31:44 10° SW
Genesis I 4.3 05:26:11 10° W 05:29:22 24° NW 05:32:35 10° NNE
DMSP B5D2-2 4.4 05:25:08 10° SSE 05:30:19 71° ENE 05:35:32 10° N
Cosmos 2341 Rocket 4.0 05:25:38 10° S 05:31:50 81° W 05:38:06 10° N
Cosmos 2278 Rocket 3.2 05:27:42 10° S 05:33:10 54° ESE 05:38:42 10° NE
SL-8 Rocket 4.1 05:33:17 10° S 05:39:26 89° E 05:45:39 10° N
BREEZE M DEB (TANK) 2.2 05:37:20 10° WSW 05:43:25 83° NNW 05:45:52 10° ENE
